Location: Home
(42.5358°N, 72.7383°W)
Time: 08:16:47
(UTC-04:00)

Explorer 11/Cluster Stage 4 - Pass Details

Date: 21 April 2025
Orbit: 463 x 1190 km, 28.8° (Epoch: 14 May)

Event Time Altitude Azimuth Distance (km) Brightness Sun altitude
Rises 08:34:25 0° 246° (WSW) 3,188 9.3 27.3°
Reaches altitude 10° 08:38:17 10° 221° (SW) 2,082 8.6 28.0°
Maximum altitude 08:40:31 13° 193° (SSW) 1,779 8.5 28.5°
Drops below altitude 10° 08:42:36 10° 164° (SSE) 1,893 9.0 28.8°
Sets 08:45:47 0° 136° (SE) 2,662 10.1 29.4°
